[[{"header":{"parameterUnit":"m.s-1","parameterCategory":1,"la1":30.2991,"la2":30.254,"lo1":-89.0895,"lo2":-89.0444,"dy":0.0017,"dx":0.0017,"nx":28,"ny":28,"refTime":"2024-08-31T09:00:00:Z","depth":0,"parameterNumber":2,"parameterNumberName":"U-component_of_WINDS"},"data":[0,0,0,0,0,0,0,0,0,0,0,0,0,0,0,0,0,0,0,0,0,0,0,0,0,0,0,0,0,0,0,0,0,0,0,0,0,0,0,0,0,0,0,0,0,0,0,0,0,0,0,0,0,0,0,0,0,0,-1.9533,-1.9533,0,-1.9534,-1.9534,-1.9534,-1.9443,-1.944,-1.9438,-1.9435,-1.9439,-1.9441,-1.9443,0,0,0,0,0,0,0,0,0,0,0,0,0,-1.9453,-1.9455,-1.9533,-1.9533,-1.9533,-1.9534,-1.9534,-1.9534,-1.9443,-1.944,-1.9437,-1.9434,-1.9438,-1.9441,-1.9443,0,0,0,0,0,0,0,0,0,0,0,0,0,-1.9474,-1.9455,-1.9533,-1.9488,-1.9484,-1.9534,-1.9534,-1.9534,-1.9444,-1.944,-1.9436,-1.9433,-1.9437,-1.944,-1.9444,-1.9539,0,0,-1.9455,-1.9456,0,0,0,0,0,0,0,0,-1.9473,-1.9477,-1.9494,-1.9491,-1.9486,-1.9484,-1.9507,-1.9536,-1.9444,-1.9459,-1.9435,-1.9431,-1.9457,-1.9459,-1.9467,-1.9539,-1.9539,-1.9455,-1.9457,-1.9459,-1.946,0,0,0,0,0,0,0,-1.9472,-1.9477,-1.9534,-1.9495,-1.949,-1.9468,-1.9467,-1.9512,-1.9479,-1.9457,-1.9451,-1.9452,-1.9454,-1.9464,-1.9466,-1.9539,-1.9455,-1.9458,-1.946,-1.9462,-1.9689,-1.9693,0,0,0,0,0,0,-1.9476,-1.9476,-1.9534,-1.9534,-1.9471,-1.9472,-1.9471,-1.9489,-1.9478,-1.9472,-1.9455,-1.9448,-1.946,-1.9462,-1.9466,-1.9576,-1.9459,-1.9462,-1.9464,-1.9685,-1.969,-1.9694,0,0,0,0,0,0,-1.9475,-1.9482,-1.9534,-1.9503,-1.9508,-1.9477,-1.9498,-1.9491,-1.95,-1.9476,-1.947,-1.9471,-1.9457,-1.9461,-1.9521,-1.9575,-1.9464,-1.9467,-1.968,-1.9687,-1.9692,-1.9798,0,0,0,0,0,0,-1.9473,-1.9482,-1.9518,-1.9505,-1.951,-1.9589,-1.9502,-1.9493,-1.9506,-1.9497,-1.9489,-1.9485,-1.9454,-1.9516,-1.9525,-1.9578,-1.947,-1.9675,-1.9683,-1.969,-1.9789,-1.9807,-1.9821,0,0,0,0,0,-1.9471,-1.9548,-1.952,-1.9528,-1.9554,-1.9592,-1.9595,-1.9558,-1.9511,-1.9547,-1.9531,-1.9485,-1.9568,-1.9523,-1.9532,-1.9587,-1.9672,-1.9681,-1.9689,-1.9782,-1.9803,-1.9821,0,0,0,0,0,0,-1.957,-1.9546,-1.9514,-1.959,-1.9594,-1.9576,-1.962,-1.9581,-1.9599,-1.9589,-1.9543,-1.9542,-1.961,-1.9604,-1.9555,-1.9678,-1.9612,-1.9623,-1.9679,-1.9699,-1.9715,-1.9715,-1.9472,0,0,0,0,0,-1.96,-1.9633,-1.961,-1.9679,-1.9683,-1.9651,-1.9667,-1.9638,-1.964,-1.9641,-1.963,-1.9634,-1.9661,-1.968,-1.9703,-1.9788,-1.9785,-1.983,-1.9846,-1.9859,-1.987,-1.9914,-1.9933,-1.9723,-1.9723,-1.9723,0,0,-1.9664,-1.9655,-1.9678,-1.9699,-1.9698,-1.9733,-1.9653,-1.9694,-1.972,-1.9647,-1.9703,-1.9695,-1.9697,-1.977,-1.9801,-1.9767,-1.9927,-1.9871,-1.9881,-1.9884,-1.9925,-1.9945,-1.9963,-1.9729,-1.9728,-1.9727,0,0,-1.9798,-1.9794,-1.9851,-1.9852,-1.9852,-1.983,-1.9844,-1.9832,-1.9824,-1.9879,-1.9825,-1.9856,-1.9903,-1.9906,-1.9914,-2.0049,-2.0007,-2.0058,-2.0141,-2.0185,-2.0202,-2.0216,-2.0264,-2.0282,-2.0068,-2.0068,-2.0068,0,-1.9877,-1.9927,-1.9885,-1.9929,-1.994,-1.9875,-1.9933,-1.9936,-1.9944,-1.9953,-1.9914,-1.9972,-1.9969,-2.0041,-2.0074,-2.0083,-2.0097,-2.0059,-2.0203,-2.0217,-2.023,-2.0275,-2.0293,-2.0074,-2.0074,-2.0073,-2.0073,0,-2.0025,-2.0061,-2.0107,-2.0115,-2.013,-2.0181,-2.0147,-2.0168,-2.0138,-2.0121,-2.0178,-2.0171,-2.0192,-2.0207,-2.0178,-2.0276,-2.0255,-2.0211,-2.0143,-2.0257,-2.0298,-2.0315,-2.0083,-2.0081,-2.0079,-2.0078,0,0,-2.0222,-2.0205,-2.0223,-2.0226,-2.022,-2.0247,-2.0295,-2.0315,-2.0334,-2.0341,-2.038,-2.0421,-2.038,-2.0389,-2.036,-2.0399,-2.0505,-2.0349,-2.0349,-2.0378,-2.0612,-2.0646,-2.0666,-2.0478,-2.0481,-2.0483,-2.0612,0,-2.0351,-2.0431,-2.0394,-2.0478,-2.0511,-2.045,-2.0491,-2.0493,-2.0478,-2.0503,-2.0487,-2.0517,-2.046,-2.0465,-2.0501,-2.0485,-2.0552,-2.0475,-2.0514,-2.0515,-2.0515,-2.0688,-2.0724,-2.0846,-2.0628,-2.0631,-2.0633,0,-2.0513,-2.0526,-2.0613,-2.0602,-2.0614,-2.0652,-2.0666,-2.0692,-2.0692,-2.0679,-2.0689,-2.0651,-2.0697,-2.063,-2.0693,-2.0641,-2.0655,-2.065,-2.0653,-2.0656,-2.0581,-2.0695,-2.0884,-2.0902,-2.0658,-2.0656,-2.0654,0,-2.0647,-2.0687,-2.0744,-2.0749,-2.0737,-2.0764,-2.0761,-2.0758,-2.0772,-2.0785,-2.0793,-2.0812,-2.0823,-2.0838,-2.0806,-2.076,-2.0874,-2.0804,-2.0864,-2.0865,-2.0891,-2.089,-2.1085,-2.09,-2.09,-2.09,-2.0899,0,-2.0796,-2.0852,-2.0804,-2.084,-2.09,-2.0858,-2.0919,-2.0909,-2.0906,-2.0939,-2.0887,-2.0919,-2.0875,-2.0902,-2.0878,-2.0934,-2.0939,-2.0929,-2.0922,-2.0934,-2.0935,-2.0942,-2.0933,-2.0904,-2.0903,-2.0902,-2.0902,0,-2.0957,-2.0927,-2.0985,-2.0969,-2.0966,-2.1011,-2.0997,-2.1029,-2.101,-2.1052,-2.1059,-2.1031,-2.106,-2.103,-2.1058,-2.1041,-2.1116,-2.1097,-2.1116,-2.111,-2.1172,-2.1167,-2.1378,-2.1404,-2.1203,-2.1205,-2.1207,0,-2.1053,-2.1094,-2.1082,-2.11,-2.1099,-2.1128,-2.1142,-2.1101,-2.1118,-2.1121,-2.1153,-2.1178,-2.1196,-2.1246,-2.1228,-2.1249,-2.1229,-2.1302,-2.1232,-2.1243,-2.123,-2.1228,-2.1232,-2.1316,-2.1319,-2.1321,-2.1322,0,-2.1228,-2.1211,-2.1232,-2.1249,-2.1267,-2.1278,-2.1285,-2.1303,-2.1261,-2.1282,-2.1311,-2.1325,-2.1353,-2.1379,-2.1394,-2.139,-2.135,-2.1344,-2.1359,-2.1372,-2.1381,-2.1377,-2.1155,-2.134,-2.1338,-2.1337,-2.1336,-2.1335,-2.1359,-2.1393,-2.1389,-2.1415,-2.1416,-2.1424,-2.1453,-2.1437,-2.1461,-2.148,-2.1455,-2.1491,-2.149,-2.1506,-2.1507,-2.1535,-2.1505,-2.1527,-2.1532,-2.1538,-2.1547,-2.1377,-2.1538,-2.1537,-2.1537,-2.1537,-2.1536,0,-2.1531,-2.1526,-2.1549,-2.1561,-2.1581,-2.154,-2.1546,-2.1566,-2.1598,-2.16,-2.1618,-2.1652,-2.1676,-2.166,-2.168,-2.1706,-2.1688,-2.1713,-2.1711,-2.171,-2.1574,-2.1558,-2.1727,-2.1727,-2.1727,-2.1727,-2.1727,-2.1727,-2.1623,-2.1678,-2.166,-2.1715,-2.1709,-2.1743,-2.175,-2.1757,-2.1759,-2.1798,-2.1818,-2.1806,-2.1801,-2.1821,-2.1842,-2.1836,-2.1846,-2.1878,-2.1866,-2.1739,-2.172,-2.1702,-2.1688,-2.1881,-2.1881,-2.2001,-2.2002,-2.2003]},{"header":{"parameterUnit":"m.s-1","parameterCategory":1,"la1":30.2991,"la2":30.254,"lo1":-89.0895,"lo2":-89.0444,"dy":0.0017,"dx":0.0017,"nx":28,"ny":28,"refTime":"2024-08-31T09:00:00:Z","depth":0,"parameterNumber":3,"parameterNumberName":"V-component_of_WINDS"},"data":[0,0,0,0,0,0,0,0,0,0,0,0,0,0,0,0,0,0,0,0,0,0,0,0,0,0,0,0,0,0,0,0,0,0,0,0,0,0,0,0,0,0,0,0,0,0,0,0,0,0,0,0,0,0,0,0,0,0,0.0619,0.0619,0,0.0632,0.0633,0.0633,0.0612,0.0611,0.0611,0.061,0.0624,0.0625,0.0626,0,0,0,0,0,0,0,0,0,0,0,0,0,0.0576,0.0577,0.0619,0.0619,0.0619,0.0632,0.0633,0.0633,0.0612,0.0611,0.0611,0.061,0.0623,0.0625,0.0626,0,0,0,0,0,0,0,0,0,0,0,0,0,0.0593,0.0577,0.0619,0.0611,0.061,0.0632,0.0633,0.0633,0.0612,0.0611,0.061,0.0609,0.0623,0.0625,0.0626,0.0657,0,0,0.0631,0.0631,0,0,0,0,0,0,0,0,0.0592,0.0594,0.0612,0.0611,0.0611,0.0619,0.0622,0.0641,0.0613,0.0612,0.061,0.0609,0.0623,0.0625,0.063,0.0658,0.0658,0.0631,0.0632,0.0633,0.0633,0,0,0,0,0,0,0,0.0591,0.0594,0.0624,0.0612,0.0611,0.0606,0.0608,0.0626,0.0623,0.0612,0.061,0.0612,0.0623,0.0628,0.063,0.0658,0.0631,0.0632,0.0633,0.0634,0.0714,0.0715,0,0,0,0,0,0,0.059,0.0593,0.0624,0.0625,0.0598,0.0608,0.0609,0.0618,0.0623,0.0623,0.0613,0.0611,0.0626,0.0628,0.063,0.0667,0.0633,0.0634,0.0635,0.0713,0.0714,0.0715,0,0,0,0,0,0,0.059,0.0593,0.0623,0.0608,0.0612,0.061,0.0619,0.0619,0.0624,0.0624,0.0623,0.0619,0.0625,0.0628,0.0651,0.0667,0.0635,0.0636,0.0711,0.0713,0.0715,0.0741,0,0,0,0,0,0,0.0588,0.0593,0.0605,0.0609,0.0613,0.0643,0.062,0.062,0.0627,0.0624,0.0629,0.0629,0.0625,0.0649,0.0652,0.0669,0.0637,0.071,0.0712,0.0714,0.0739,0.0744,0.0748,0,0,0,0,0,0.0587,0.0611,0.0605,0.0609,0.0627,0.0644,0.0647,0.0641,0.0628,0.064,0.064,0.0629,0.0665,0.0651,0.0655,0.0672,0.0709,0.0711,0.0714,0.0737,0.0743,0.0748,0,0,0,0,0,0,0.0609,0.0612,0.0605,0.0632,0.0638,0.0641,0.0655,0.0647,0.0657,0.0655,0.0647,0.0648,0.0673,0.0675,0.0659,0.0703,0.0685,0.0688,0.0701,0.0707,0.0711,0.071,0.0639,0,0,0,0,0,0.0617,0.0631,0.0633,0.0656,0.0659,0.0657,0.0664,0.066,0.0666,0.0668,0.067,0.0677,0.069,0.0698,0.071,0.074,0.0741,0.0754,0.0758,0.0762,0.0765,0.0781,0.0787,0.0724,0.0724,0.0724,0,0,0.0634,0.0637,0.0646,0.066,0.0665,0.068,0.0659,0.0676,0.0687,0.0671,0.0692,0.0694,0.0701,0.0728,0.074,0.073,0.0783,0.0765,0.0768,0.0769,0.0785,0.0791,0.0796,0.0726,0.0726,0.0725,0,0,0.0671,0.0675,0.0695,0.07,0.0707,0.0706,0.0711,0.0715,0.0716,0.0738,0.0726,0.074,0.0762,0.0767,0.0773,0.0815,0.0805,0.0819,0.0842,0.0858,0.0863,0.0868,0.0883,0.0888,0.0822,0.0822,0.0822,0,0.0691,0.0712,0.0706,0.0724,0.0731,0.0718,0.0738,0.0743,0.0754,0.0759,0.0749,0.0777,0.0781,0.0809,0.0819,0.0824,0.083,0.0818,0.0863,0.0868,0.0872,0.0886,0.0892,0.0824,0.0823,0.0823,0.0823,0,0.0736,0.0752,0.0767,0.0778,0.0787,0.0806,0.0803,0.0813,0.0808,0.0807,0.083,0.0835,0.0847,0.0854,0.0848,0.0881,0.0875,0.0864,0.0845,0.0879,0.0893,0.0898,0.0826,0.0825,0.0825,0.0825,0,0,0.0787,0.0795,0.0801,0.0806,0.0814,0.0826,0.0845,0.0858,0.0866,0.0875,0.089,0.091,0.09,0.0907,0.0902,0.0917,0.095,0.0904,0.0904,0.0912,0.0987,0.0995,0.1002,0.0944,0.0945,0.0946,0.0986,0,0.0825,0.0857,0.0853,0.0884,0.0898,0.0887,0.0903,0.091,0.0911,0.0923,0.0924,0.0938,0.0924,0.0928,0.0942,0.0943,0.0965,0.094,0.0959,0.0959,0.0957,0.1009,0.1017,0.1055,0.0992,0.0992,0.0993,0,0.0873,0.0883,0.0916,0.0922,0.0928,0.0943,0.0955,0.0967,0.0975,0.0974,0.0983,0.0976,0.0995,0.0977,0.1004,0.0987,0.0995,0.0997,0.0998,0.0999,0.0978,0.1011,0.1067,0.1073,0.1001,0.1001,0.1,0,0.0907,0.0929,0.0952,0.0957,0.0964,0.0975,0.0979,0.0986,0.0994,0.1005,0.101,0.1023,0.103,0.104,0.1038,0.1024,0.1065,0.1046,0.1066,0.1066,0.1074,0.1074,0.1132,0.108,0.108,0.1079,0.1079,0,0.0949,0.097,0.0967,0.0981,0.1004,0.0999,0.1022,0.1025,0.1031,0.1046,0.1037,0.105,0.1046,0.106,0.1058,0.1081,0.1084,0.1085,0.1084,0.1085,0.1085,0.109,0.1087,0.1081,0.1081,0.108,0.108,0,0.0991,0.099,0.1014,0.102,0.1022,0.1039,0.1044,0.1057,0.1057,0.1076,0.108,0.1081,0.1097,0.1095,0.1113,0.1112,0.114,0.1136,0.1138,0.1137,0.1156,0.1155,0.122,0.1228,0.117,0.1171,0.1171,0,0.1018,0.1033,0.1041,0.105,0.1055,0.107,0.1079,0.1075,0.1085,0.1095,0.1108,0.1123,0.1135,0.1161,0.1163,0.1177,0.1173,0.1195,0.1175,0.1177,0.1174,0.1173,0.1175,0.1199,0.12,0.12,0.1201,0,0.1066,0.1065,0.1078,0.1091,0.1102,0.1112,0.1121,0.1129,0.1127,0.1138,0.1154,0.1164,0.1183,0.1198,0.1211,0.1216,0.1208,0.1207,0.1212,0.1214,0.1214,0.1215,0.1148,0.1205,0.1205,0.1205,0.1204,0.1204,0.1101,0.1114,0.1122,0.1137,0.1144,0.1153,0.1167,0.1169,0.1183,0.1198,0.1195,0.1213,0.1222,0.1239,0.1245,0.126,0.1252,0.1259,0.1261,0.1263,0.1266,0.1212,0.1262,0.1262,0.1262,0.1262,0.1262,0,0.1148,0.1153,0.1167,0.1181,0.1193,0.1185,0.1195,0.1206,0.1223,0.1231,0.1243,0.1263,0.1278,0.1282,0.1297,0.1308,0.1305,0.1312,0.1311,0.1312,0.1272,0.1266,0.1314,0.1314,0.1314,0.1314,0.1314,0.1314,0.1175,0.1198,0.1198,0.1225,0.1229,0.1248,0.1254,0.1263,0.127,0.1292,0.1305,0.1307,0.1314,0.133,0.1344,0.1345,0.135,0.1359,0.1358,0.132,0.1315,0.131,0.1304,0.136,0.136,0.1398,0.1398,0.1398]}]]